Location: Caltech
(34.1382°N, 118.1253°W)
Time: 07:02:07
(UTC-07:00)

Iridium 94 - Visible Passes

Search period start: 28 August 2016 00:00
Search period end: 07 September 2016 00:00
Orbit: 776 x 778 km, 86.4° (Epoch: 27 August)

Date Brightness Start Highest point End Pass type
(mag) Time Alt. Az. Time Alt. Az. Time Alt. Az.
28 Aug 6.1 03:58:01 49° NNW 03:58:01 49° NNW 04:01:53 10° N visible
29 Aug 6.7 03:24:58 38° NNE 03:24:58 38° NNE 03:28:19 10° N visible
29 Aug 7.5 05:05:27 12° WNW 05:05:27 12° WNW 05:06:27 10° NW visible
30 Aug 7.6 02:51:53 23° NE 02:51:53 23° NE 02:54:20 10° NNE visible
30 Aug 7.1 04:32:22 20° NW 04:32:22 20° NW 04:34:41 10° NNW visible
31 Aug 8.3 02:18:47 12° NE 02:18:47 12° NE 02:19:37 10° NE visible
31 Aug 7.0 03:59:17 27° NNW 03:59:17 27° NNW 04:01:49 10° NNW visible
01 Sep 7.2 03:26:10 27° N 03:26:10 27° N 03:28:30 10° N visible
02 Sep 7.8 02:53:02 20° NNE 02:53:02 20° NNE 02:54:46 10° NNE visible
02 Sep 7.7 04:33:31 11° NW 04:33:31 11° NW 04:33:58 10° NW visible
03 Sep 8.3 02:19:53 13° NE 02:19:53 13° NE 02:20:34 10° NNE visible
03 Sep 7.6 04:00:23 16° NNW 04:00:23 16° NNW 04:01:36 10° NNW visible
04 Sep 7.7 03:27:13 18° N 03:27:13 18° N 03:28:32 10° N visible
05 Sep 8.0 02:54:03 16° N 02:54:03 16° N 02:55:02 10° N visible
06 Sep 8.5 02:20:51 11° NNE 02:20:51 11° NNE 02:21:09 10° NNE visible
